Regional Weather Roundup
Issued by NWS

Home | Current Version | Previous Version | Graphics & Text | Print | Product List | Glossary On
Versions: 1 2 3 4 5 6 7 8 9 10 11 12 13 14 15 16 17 18 19 20 21 22 23 24 25 26 27 28
000
ASUS45 KCYS 271110
RWRWY

WYOMING REGIONAL WEATHER ROUNDUP
NATIONAL WEATHER SERVICE CHEYENNE WY
500 AM MDT TUE JUN 27 2017

NOTE:  "FAIR" INDICATES FEW OR NO CLOUDS BELOW 12,000 FEET
WITH NO SIGNIFICANT WEATHER AND/OR OBSTRUCTIONS TO VISIBILITY.

WYZ001-271200-
YELLOWSTONE NATIONAL PARK

CITY           SKY/WX    TMP DP  RH WIND       PRES   REMARKS
LK YELLOWSTONE   N/A     53  44  71 CALM      30.16R
W YELLOWSTONE  NOT AVBL

$$
WYZ002>013-054>058-071-098>099-271200-
NORTHERN WYOMING

CITY           SKY/WX    TMP DP  RH WIND       PRES   REMARKS
JACKSON        CLOUDY    55  52  88 E7G16     30.08S
CODY           FAIR      68  40  35 CALM      29.89R
GREYBULL       FAIR      65  35  33 CALM      29.80R
WORLAND        FAIR      63  40  42 N5        29.81R
SHERIDAN       FAIR      52  46  80 S7        29.79R
BUFFALO        FAIR      61  38  42 N10G28    29.85R
GILLETTE       FAIR      61  49  64 SE3       29.81F
NEWCASTLE      FAIR      63  50  63 E20G26    29.88F

$$
WYZ014>020-022>026-101>103-271200-
CENTRAL WYOMING

CITY           SKY/WX    TMP DP  RH WIND       PRES   REMARKS
BIG PINEY      FAIR      56  39  53 N12       30.07S
PINEDALE       FAIR      54  41  62 W6        30.08F
DUBOIS         PTSUNNY   55  37  50 NW10      30.10R
LANDER         FAIR      66  37  34 S6        29.93S
RIVERTON       FAIR      64  40  41 W9        29.91R
CASPER         FAIR      68  42  38 S17       29.91R
DOUGLAS        FAIR      59  54  83 SE14      29.91F

$$
WYZ021-027>030-104>119-271200-
SOUTHERN WYOMING

CITY           SKY/WX    TMP DP  RH WIND       PRES   REMARKS
EVANSTON       FAIR      59  35  40 SW8       30.06S
KEMMERER         N/A     50  37  62 N10       30.07F
FORT BRIDGER   FAIR      61  30  30 W8        30.08S
ROCK SPRINGS   FAIR      64  33  31 S7        30.02F
DIXON          FAIR      54  33  44 E12       30.08F
RAWLINS        FAIR      66  30  26 W3        30.05F
SARATOGA       FAIR      55  32  41 SE7       30.10F
LARAMIE        FAIR      50  46  86 S12       30.08F
CHEYENNE       CLOUDY    55  54  96 S7        30.04F FOG
TORRINGTON     MOCLDY    61  56  83 SE12      29.93F
PINE BLUFFS    FAIR      57  55  94 S13G21    30.01F

$$




USA.gov is the U.S. government's official web portal to all federal, state and local government web resources and services.